Le nostre stazioni meteo in Italia

Pubblicità
Il mio iltempo24.it
Lecce, Italia (16333): Temperatura & dewpoint: 22.05.2018 09:00:00 - 28.05.2018 09:00:00 (CEST)Lecce, Italia (16333): velocità del vento: 22.05.2018 09:00:00 - 28.05.2018 09:00:00 (CEST)Lecce, Italia (16333): direzione del vento: 22.05.2018 09:00:00 - 28.05.2018 09:00:00 (CEST)Lecce, Italia (16333): reduced air pressure: 22.05.2018 09:00:00 - 28.05.2018 09:00:00 (CEST)Lecce, Italia (16333): precipitazioni: 22.05.2018 09:00:00 - 28.05.2018 09:00:00 (CEST)
Data & Tempo tt [°C] td [°C] ff [km/h] ff [kn] dd ppp [hPa] rr [mm]
28.05.2018 09:00:00 - - - - - - -
28.05.2018 08:00:00 21,1 20,7 4 2 N 1017,4 -
28.05.2018 07:00:00 17,5 17,0 0 0 N 1017,3 -
28.05.2018 06:00:00 16,2 15,7 2 1 SSO 1017,0 -
28.05.2018 05:00:00 17,2 16,7 0 0 N 1016,6 -
28.05.2018 04:00:00 18,3 17,8 4 2 ONO 1016,9 -
28.05.2018 03:00:00 17,3 16,6 4 2 OSO 1016,9 -
28.05.2018 02:00:00 17,4 16,5 0 0 N 1016,6 0,0
28.05.2018 01:00:00 18,3 17,3 0 0 N 1017,1 -
28.05.2018 00:00:00 19,8 18,7 0 0 N 1017,4 -
27.05.2018 23:00:00 21,2 20,0 4 2 N 1017,2 -
27.05.2018 22:00:00 21,6 20,4 9 5 N 1017,2 -
27.05.2018 21:00:00 22,7 20,4 15 8 NNE 1016,7 -
27.05.2018 20:00:00 25,5 17,4 11 6 NE 1016,2 0,0
27.05.2018 19:00:00 27,5 17,3 16 9 N 1015,8 -
27.05.2018 18:00:00 27,5 17,6 16 9 N 1015,7 -
27.05.2018 17:00:00 28,3 18,3 21 11 N 1016,2 -
27.05.2018 16:00:00 28,4 19,3 24 13 NNE 1016,5 -
27.05.2018 15:00:00 28,2 18,8 22 12 NE 1016,7 -
27.05.2018 14:00:00 28,3 20,3 21 11 ENE 1017,0 0,0
27.05.2018 13:00:00 27,6 20,6 22 12 NNE 1017,1 -
27.05.2018 12:00:00 26,8 21,5 29 16 NNO 1017,5 -
27.05.2018 11:00:00 26,7 21,2 34 18 N 1017,6 -
27.05.2018 10:00:00 26,1 20,8 28 15 N 1017,5 -
27.05.2018 09:00:00 24,8 20,2 28 15 N 1017,5 -
27.05.2018 08:00:00 22,7 21,5 24 13 NNO 1017,1 0,0
27.05.2018 07:00:00 19,7 19,2 11 6 NO 1016,9 -
27.05.2018 06:00:00 17,4 16,7 8 4 NO 1016,6 -
27.05.2018 05:00:00 16,7 16,0 5 3 NO 1016,4 -
27.05.2018 04:00:00 16,7 15,8 8 4 SO 1016,7 -
27.05.2018 03:00:00 17,8 16,9 2 1 SO 1017,0 -
27.05.2018 02:00:00 18,3 17,4 2 1 SSO 1017,6 0,0
27.05.2018 01:00:00 19,3 18,4 5 3 NNO 1018,0 -
27.05.2018 00:00:00 19,2 18,3 8 4 NNO 1018,2 -
26.05.2018 23:00:00 19,9 18,8 11 6 NO 1018,0 -
26.05.2018 22:00:00 21,2 19,8 9 5 N 1017,3 -
26.05.2018 21:00:00 22,2 20,6 13 7 N 1016,6 -
26.05.2018 20:00:00 24,3 18,6 18 10 NNE 1016,1 0,0
26.05.2018 19:00:00 25,9 18,0 22 12 NNE 1015,7 -
26.05.2018 18:00:00 26,8 17,8 26 14 N 1015,4 -
26.05.2018 17:00:00 27,3 19,3 28 15 N 1015,8 -
26.05.2018 16:00:00 28,1 19,6 28 15 N 1015,8 -
26.05.2018 15:00:00 27,4 20,2 26 14 NNO 1016,2 -
26.05.2018 14:00:00 27,0 20,8 24 13 NNE 1016,5 0,0
26.05.2018 13:00:00 26,3 21,0 26 14 NNE 1016,6 -
26.05.2018 12:00:00 26,0 21,8 34 18 N 1016,7 -
26.05.2018 11:00:00 25,2 22,0 31 17 NNO 1016,6 -
26.05.2018 10:00:00 24,8 21,9 28 15 NNE 1016,5 -
26.05.2018 09:00:00 23,6 21,1 - - - 1016,5 -
26.05.2018 08:00:00 21,6 20,7 - - - 1016,1 -
26.05.2018 07:00:00 19,8 19,4 15 8 NNO 1015,7 -
26.05.2018 06:00:00 17,9 17,4 4 2 NO 1015,3 -
26.05.2018 05:00:00 18,1 17,6 4 2 N 1015,0 -
26.05.2018 04:00:00 18,2 17,7 - - - 1014,9 -
26.05.2018 03:00:00 18,7 18,2 15 8 NNO 1014,9 -
26.05.2018 02:00:00 19,3 18,6 9 5 NNO 1015,0 0,0
26.05.2018 01:00:00 19,8 19,1 11 6 N 1015,3 -
26.05.2018 00:00:00 19,7 18,8 8 4 ONO 1015,3 -
25.05.2018 23:00:00 20,4 19,5 11 6 N 1015,3 -
25.05.2018 22:00:00 20,6 19,4 13 7 N 1014,9 -
25.05.2018 21:00:00 21,9 19,2 13 7 NE 1014,1 -
25.05.2018 20:00:00 23,9 17,8 18 10 NNO 1013,2 0,0
25.05.2018 19:00:00 25,7 17,8 18 10 NNE 1012,6 -
25.05.2018 18:00:00 26,2 17,5 22 12 N 1012,5 -
25.05.2018 17:00:00 26,5 18,0 24 13 N 1012,8 -
25.05.2018 16:00:00 26,6 17,9 - - - 1012,7 -
25.05.2018 15:00:00 26,5 19,1 - - - 1013,0 -
25.05.2018 14:00:00 25,7 20,0 26 14 NNO 1013,2 0,0
25.05.2018 13:00:00 25,4 19,9 - - - 1013,4 -
25.05.2018 12:00:00 24,4 20,9 - - - 1013,8 -
25.05.2018 11:00:00 23,2 20,9 - - - 1013,7 -
25.05.2018 10:00:00 23,3 21,3 - - - 1013,9 -
25.05.2018 09:00:00 21,7 20,6 24 13 N 1013,8 -
25.05.2018 08:00:00 19,7 19,3 - - - 1013,7 -
25.05.2018 07:00:00 17,7 17,2 0 0 N 1013,7 -
25.05.2018 06:00:00 17,1 16,6 5 3 ONO 1013,7 -
25.05.2018 05:00:00 18,2 17,8 11 6 NNO 1013,6 -
25.05.2018 04:00:00 18,1 17,6 18 10 NO 1013,6 -
25.05.2018 03:00:00 17,6 17,1 8 4 NO 1013,8 -
25.05.2018 02:00:00 17,4 16,7 - - - 1014,0 0,0
25.05.2018 01:00:00 17,5 16,8 4 2 ONO 1014,0 -
25.05.2018 00:00:00 18,0 17,1 - - - 1014,2 -
24.05.2018 23:00:00 18,6 17,7 - - - 1014,7 -
24.05.2018 22:00:00 19,5 18,5 8 4 N 1014,8 -
24.05.2018 21:00:00 20,1 18,9 - - - 1014,4 -
24.05.2018 20:00:00 21,2 19,4 - - - 1013,9 0,0
24.05.2018 19:00:00 23,0 19,3 - - - 1013,4 -
24.05.2018 18:00:00 24,1 19,1 - - - 1013,3 -
24.05.2018 17:00:00 24,5 18,6 - - - 1013,6 -
24.05.2018 16:00:00 24,6 19,1 - - - 1014,0 -
24.05.2018 15:00:00 24,0 17,9 - - - 1014,6 -
24.05.2018 14:00:00 23,4 18,2 - - - 1014,6 0,0
24.05.2018 13:00:00 23,3 18,3 - - - 1015,0 -
24.05.2018 12:00:00 21,9 18,8 - - - 1015,2 -
24.05.2018 11:00:00 21,0 18,5 - - - 1015,4 -
24.05.2018 10:00:00 21,0 19,4 - - - 1015,1 -
24.05.2018 09:00:00 19,7 18,8 - - - 1015,3 -
24.05.2018 08:00:00 18,5 18,1 - - - 1014,9 0,0
24.05.2018 07:00:00 16,8 16,3 - - - 1014,7 -
24.05.2018 06:00:00 15,4 14,9 - - - 1014,5 -
24.05.2018 05:00:00 15,8 - - - - 1014,2 -
24.05.2018 04:00:00 15,8 - - - - 1014,2 -
24.05.2018 03:00:00 - - - - - - -
24.05.2018 02:00:00 - - - - - - 0,0
24.05.2018 01:00:00 - - - - - - -
24.05.2018 00:00:00 - - - - - - -
23.05.2018 23:00:00 - - - - - - -
23.05.2018 22:00:00 - - - - - - -
23.05.2018 21:00:00 - - - - - - -
23.05.2018 20:00:00 - - - - - - -
23.05.2018 19:00:00 - - - - - - -
23.05.2018 18:00:00 17,1 16,6 - - - 1013,1 -
23.05.2018 17:00:00 - - - - - - -
23.05.2018 16:00:00 16,5 - - - - - -
23.05.2018 15:00:00 17,1 16,2 24 13 NO 1013,9 -
23.05.2018 14:00:00 19,6 18,6 9 5 NNO 1013,8 -
23.05.2018 13:00:00 20,4 18,8 13 7 N 1013,5 -
23.05.2018 12:00:00 21,5 20,1 15 8 ONO 1013,8 -
23.05.2018 11:00:00 20,9 19,5 8 4 O 1013,5 -
23.05.2018 10:00:00 20,9 20,0 15 8 NO 1013,5 -
23.05.2018 09:00:00 21,2 20,5 2 1 O 1014,0 -
23.05.2018 08:00:00 20,5 19,8 9 5 E 1013,2 0,0
23.05.2018 07:00:00 19,2 18,5 4 2 ONO 1013,5 -
23.05.2018 06:00:00 19,1 18,4 5 3 SE 1012,4 -
23.05.2018 05:00:00 18,9 18,2 8 4 E 1012,8 -
23.05.2018 04:00:00 17,8 16,9 2 1 E 1013,6 -
23.05.2018 03:00:00 17,0 16,0 2 1 SO 1013,8 -
23.05.2018 02:00:00 17,0 15,6 0 0 N 1013,8 0,0
23.05.2018 01:00:00 17,5 16,0 0 0 N 1014,7 -
23.05.2018 00:00:00 18,4 15,9 4 2 E 1014,6 -
22.05.2018 23:00:00 19,2 15,8 2 1 ENE 1014,9 -
22.05.2018 22:00:00 20,8 18,3 4 2 E 1014,6 -
22.05.2018 21:00:00 22,0 17,9 4 2 NO 1014,4 -
22.05.2018 20:00:00 24,2 19,0 0 0 N 1014,1 0,0
22.05.2018 19:00:00 25,8 19,6 11 6 O 1013,7 -
22.05.2018 18:00:00 28,4 20,4 8 4 SSE 1013,3 -
22.05.2018 17:00:00 27,3 20,3 18 10 NE 1013,6 -
22.05.2018 16:00:00 28,4 19,3 18 10 ESE 1013,6 -
22.05.2018 15:00:00 28,3 20,0 15 8 E 1014,0 -
22.05.2018 14:00:00 26,5 18,8 15 8 NNE 1014,6 0,0
22.05.2018 13:00:00 27,3 19,3 18 10 E 1014,7 -
22.05.2018 12:00:00 28,0 19,2 4 2 NO 1014,6 -
22.05.2018 11:00:00 27,4 19,2 8 4 S 1014,8 -
22.05.2018 10:00:00 25,8 19,4 4 2 NNE 1014,6 -
22.05.2018 09:00:00 23,8 22,0 2 1 NE 1014,3 -

tt = Temperatura
td = dewpoint
ff = velocità del vento
dd = direzione del vento
ppp = reduced air pressure
rr = precipitazioni

Stazioni seguenti

WeatherPro
AMSI
MeteoEarth